Cedar City, UT

8:18 PM MST on February 21, 2017 (GMT -0700)
Cedar City Regional

Weather History for KCDC - January, 2014

Change the Weather History Date:

Saturday, January 25, 2014

  Actual Average Record
Temperature  
Mean Temperature 30 °F 30 °F  
Max Temperature 44 °F 42 °F 64 °F (1975)
Min Temperature 16 °F 17 °F -10 °F (1962)
Degree Days  
Heating Degree Days 35 35  
Month to date heating degree days 733 904  
Since 1 July heating degree days 3588 3466  
Cooling Degree Days 0 0  
Month to date cooling degree days 0 0  
Year to date cooling degree days 0 0  
Moisture  
Dew Point 14 °F    
Average Humidity 59    
Maximum Humidity 88    
Minimum Humidity 30    
Precipitation  
Precipitation 0.00 in 0.02 in 0.41 in (1954)
Month to date precipitation 0.00 0.69  
Year to date precipitation 0.00 0.69  
Sea Level Pressure  
Sea Level Pressure 30.39 in    
Wind  
Wind Speed 2 mph (ENE)    
Max Wind Speed 6 mph    
Max Gust Speed 7 mph    
Visibility 10 miles    
Events      
T = Trace of Precipitation, MM = Missing Value Source: NWS Daily Summary

Daily Weather History Graph

Daily Weather History Graph

Search for Another Location

Airport or City:

Trip Planner

Search our weather history database for the weather conditions in past years. The results will help you decide how hot, cold, wet, or windy it might be!

Date:

Astronomy

Jan. 25, 2014 Rise Set
Actual Time 7:41 AM MST 5:48 PM MST
Civil Twilight 7:13 AM MST 6:16 PM MST
Nautical Twilight 6:41 AM MST 6:48 PM MST
Astronomical Twilight 6:10 AM MST 7:19 PM MST
Moon 2:18 AM MST (1/25) 12:51 PM MST (1/25)
Length of Visible Light 11h 03m
Length of Day
10h 07m
Waning Crescent, 33% of the Moon is Illuminated
Jan 25
Waning Crescent
Jan 30
New
Feb 6
First Quarter
Feb 14
Full
Feb 22
Last Quarter

Hourly Weather History & Observations

Time (MST) Temp. Windchill Dew Point Humidity Pressure Visibility Wind Dir Wind Speed Gust Speed Precip Events Conditions
12:53 AM 21.9 °F 17.2 °F 12.0 °F 66% 30.49 in 10.0 mi ESE 3.5 mph - N/A   Clear
1:53 AM 19.9 °F 13.4 °F 12.0 °F 71% 30.47 in 10.0 mi ESE 4.6 mph - N/A   Clear
2:53 AM 17.1 °F 10.0 °F 12.0 °F 81% 30.46 in 10.0 mi NE 4.6 mph - N/A   Clear
3:53 AM 18.0 °F - 12.9 °F 81% 30.44 in 10.0 mi Calm Calm - N/A   Clear
4:53 AM 19.0 °F - 12.9 °F 77% 30.43 in 10.0 mi Calm Calm - N/A   Clear
5:53 AM 17.1 °F 10.0 °F 12.9 °F 84% 30.46 in 10.0 mi NE 4.6 mph - N/A   Clear
6:53 AM 16.0 °F 8.8 °F 10.9 °F 81% 30.47 in 10.0 mi NE 4.6 mph - N/A   Clear
7:53 AM 16.0 °F - 10.9 °F 81% 30.49 in 10.0 mi Calm Calm - N/A   Clear
8:53 AM 19.9 °F 14.9 °F 14.0 °F 78% 30.48 in 10.0 mi ENE 3.5 mph - N/A   Clear
9:53 AM 27.0 °F 23.0 °F 15.1 °F 61% 30.46 in 10.0 mi NE 3.5 mph - N/A   Clear
10:53 AM 30.9 °F 27.5 °F 15.1 °F 52% 30.45 in 10.0 mi ENE 3.5 mph - N/A   Clear
11:53 AM 32.0 °F - 12.9 °F 45% 30.42 in 10.0 mi Calm Calm - N/A   Clear
12:53 PM 37.0 °F - 12.9 °F 37% 30.36 in 10.0 mi Calm Calm - N/A   Clear
1:53 PM 39.9 °F 37.8 °F 14.0 °F 35% 30.33 in 10.0 mi Variable 3.5 mph - N/A   Clear
2:53 PM 43.0 °F 41.3 °F 14.0 °F 31% 30.31 in 10.0 mi East 3.5 mph - N/A   Clear
3:53 PM 43.0 °F - 14.0 °F 31% 30.30 in 10.0 mi Calm Calm - N/A   Clear
4:53 PM 43.0 °F - 15.1 °F 32% 30.29 in 10.0 mi Calm Calm - N/A   Clear
5:53 PM 36.0 °F - 15.1 °F 43% 30.31 in 10.0 mi Calm Calm - N/A   Clear
6:53 PM 32.0 °F 26.4 °F 17.1 °F 54% 30.34 in 10.0 mi SSE 5.8 mph - N/A   Clear
7:53 PM 33.1 °F 28.7 °F 15.1 °F 48% 30.32 in 10.0 mi SE 4.6 mph - N/A   Clear
8:53 PM 28.0 °F 24.2 °F 14.0 °F 56% 30.33 in 10.0 mi NNW 3.5 mph - N/A   Clear
9:53 PM 26.1 °F - 15.1 °F 63% 30.30 in 10.0 mi Calm Calm - N/A   Clear
10:53 PM 23.0 °F - 14.0 °F 68% 30.30 in 10.0 mi Calm Calm - N/A   Clear
11:53 PM 21.9 °F - 12.0 °F 66% 30.29 in 10.0 mi Calm Calm - N/A   Clear